Regional Weather Roundup
Issued by NWS Grand Forks, ND

Home | Current Version | Previous Version | Graphics & Text | Print | Product List | Glossary On
Versions: 1 2 3 4 5 6 7 8 9 10 11 12 13 14 15 16 17 18 19 20 21 22 23 24 25 26 27 28 29 30 31 32 33 34 35 36 37 38 39 40 41 42 43 44 45 46 47 48 49 50
000
ASUS43 KFGF 230810
RWRFGF
PRAIRIE TO PINES  WEATHER ROUNDUP
NATIONAL WEATHER SERVICE EASTERN NORTH DAKOTA/GRAND FORKS ND
300 AM CDT MON APR 23 2018

 **SATELLITE DATA USED TO AUGMENT SKY COVER AT AUTOMATED STATIONS**
 *****  WEATHER ACROSS EASTERN NORTH DAKOTA  *****

CITY           SKY/WX    TMP DP  RH WIND       PRES   REMARKS
GRAND FORKS    FAIR      42  40  92 S9        30.10F
GRAND FRKS AFB FAIR      46  38  73 SW13      30.10F
GRAND FRKS NWS   N/A     44  41  88 S3        30.09S
DEVILS LAKE    FAIR      39  34  82 W3        30.11S
FARGO          FAIR      44  37  76 S10       30.16S
WAHPETON ARPT  FAIR      39  34  81 SE7       30.19S
$$

 ***** WEATHER ACROSS CENTRAL AND WESTERN NORTH DAKOTA  *****

CITY           SKY/WX    TMP DP  RH WIND       PRES   REMARKS
BISMARCK       FAIR      44  37  76 SE3       30.14S
MINOT          FAIR      41  30  65 NW10      30.14R
JAMESTOWN      FAIR      44  35  70 SW8       30.13F
MINOT AFB      FAIR      35  28  76 NW9       30.13S
GARRISON         N/A     37  32  82 NW12      30.14R
WILLISTON      FAIR      38  30  73 N7        30.18R
DICKINSON      FAIR      40  30  67 VRB3      30.11S
HETTINGER      FAIR      39  33  79 CALM      30.12S
$$

 *****  OTHER AIRPORT OBSERVATIONS IN OUR AREA  *****

CITY           SKY/WX    TMP DP  RH WIND       PRES   REMARKS
WALHALLA       FAIR      46  36  66 W8        30.10R
GRAFTON AIRPOR NOT AVBL
VALLEY CITY AR NOT AVBL
CANDO          FAIR      37  32  81 NW5       30.14R
CAVALIER APRT    N/A     46  37  71 NW9       30.09R
GWINNER          N/A     41  37  87 SW10      30.16F
SHEYENNE NWR     N/A     38  38 100 SW2       29.95S
ROLLA          FAIR      39  28  65 NW13      30.13R
 ***** THE ABOVE OBSERVATIONS ARE NON NWS ARE NOT QUALITY
       CONTROLLED AND MAY MIS-REPORT RAIN FOR SNOW...
$$

  *****  WEATHER ACROSS NORTHERN MINNESOTA  *****

CITY           SKY/WX    TMP DP  RH WIND       PRES   REMARKS
FLAG ISLAND    FAIR      43  37  81 SW13      30.06F
WARROAD        MOCLDY    48  39  71 SW12      30.10S
ROSEAU         FAIR      48  41  76 SW13      30.09S
HALLOCK        FAIR      43  39  87 S8        30.09S
THF RVR FALLS  CLOUDY    46  38  73 S13       30.13F
BAUDETTE       MOCLDY    50  37  61 SW12      30.11S
WASKISH        CLOUDY    50  34  53 SW3       30.14F
CROOKSTON      CLOUDY    46  39  76 S13       30.14S
STEPHEN NDAWN    N/A     46  41  81 S12         N/A
GREENBUSH NDAW   N/A     45  39  81 S9          N/A
$$
  *****  WEATHER ACROSS CENTRAL AND WEST MINNESOTA  *****

CITY           SKY/WX    TMP DP  RH WIND       PRES   REMARKS
FOSSTON        CLOUDY    45  34  65 S10       30.16F
BEMIDJI        FAIR      44  32  64 SW5       30.17S
PARK RAPIDS    FAIR      41  35  79 S5        30.18F
ELBOW LAKE     FAIR      36  34  90 E8        30.20F
WADENA         FAIR      36  34  93 CALM      30.20S
DETROIT LAKES  FAIR      43  34  70 S3        30.19F
MOORHEAD       FAIR      41  37  87 S12       30.18S
FERGUS FALLS   FAIR      37  34  87 S7        30.19S
MORRIS MN      FAIR      37  36  93 SE7       30.20F
STAPLES        FAIR      32  32 100 S5        30.20F
$$
  *****  WEATHER ELSEWHERE ACROSS MINNESOTA  *****

CITY           SKY/WX    TMP DP  RH WIND       PRES   REMARKS
DULUTH         FAIR      44  30  57 W6        30.21S
INTRNTL FALLS  CLOUDY    46  34  62 S3        30.13S
ELY            FAIR      39  27  60 CALM      30.18S
CLOQUET        FAIR      36  27  69 SW3       30.21F
WHEATON        FAIR      41  36  81 S9        30.21F
BRAINERD       FAIR      32  27  81 SE3       30.21F
HIBBING        FAIR      28  25  88 CALM      30.19S
ALEXANDRIA     FAIR      43  35  73 S9        30.21F
SAINT CLOUD    FAIR      35  34  96 CALM      30.22F
MINNEAPOLIS    FAIR      44  37  76 CALM      30.24S
$$

  *****  WEATHER ACROSS SOUTH DAKOTA  *****

CITY           SKY/WX    TMP DP  RH WIND       PRES   REMARKS
SIOUX FALLS    FAIR      40  34  79 NE5       30.20S
BROOKINGS      FAIR      39  35  86 CALM      30.21S
WATERTOWN      FAIR      40  35  83 SE7       30.19S
HURON          FAIR      41  37  86 SE6       30.18S
SISSETON         N/A     37  35  92 S6        30.18F
ABERDEEN       FAIR      37  34  89 S6        30.18S
MITCHELL       FAIR      43  39  86 SE7       30.19S
PIERRE         FAIR      43  37  79 SE5       30.12F
MOBRIDGE       FAIR      41  34  76 SE9       30.11S
RAPID CITY     FAIR      39  35  86 E3        30.08F
$$

  *****  SOME WEATHER IN NEARBY STATES *****

CITY           SKY/WX    TMP DP  RH WIND       PRES   REMARKS
GLASGOW MT     FAIR      46  28  49 NE15      30.19R
GREAT FALLS MT MOCLDY    40  23  50 NE15      30.26R
CHEYENNE WY    FAIR      38  36  92 W5        30.12F
SCOTTSBLUFF NE FAIR      39  37  92 E10       30.12F
OMAHA NE       FAIR      45  28  51 NW5       30.17S
DES MOINES IA  FAIR      51  31  46 E6        30.17F
DAVENPORT IA   FAIR      42  27  55 NE10      30.20F
CHICAGO IL     MOCLDY    43  30  60 NE8       30.20F
EAU CLAIRE WI  FAIR      35  24  64 N3        30.25S
LA CROSSE WI   FAIR      40  30  67 CALM      30.26S
$$

  *****  SOME NATIONAL WEATHER *****

CITY           SKY/WX    TMP DP  RH WIND       PRES   REMARKS
LA GUARDIA NY  FAIR      47  33  58 CALM      30.41R
RALEIGH NC     CLOUDY    53  45  74 E8        30.30F
ATLANTA GA     LGT RAIN  59  58  96 E14G28    29.94F
NEW ORLEANS LA FAIR      61  51  70 NW8       29.96F
OKLAHOMA CITY  CLOUDY    53  48  83 NW12      30.06S
ALBUQUERQUE NM FAIR      58  26  29 E5        30.12R
SALT LAKE CITY MOCLDY    64  33  31 CALM      29.92R
LOS ANGELES CA FAIR      58  56  93 N3        29.96F FOG
BOISE ID       FAIR      44  26  49 W15       30.10R
SEATTLE WA     FAIR      47  38  71 N6        30.34R
$$

*** WEATHER ACROSS MANITOBA...SASKATCHEWAN AND ONTARIO ***
                ***ONTARIO***

CITY           SKY/WX    TMP DP  RH WIND       PRES   REMARKS
GERALDTON      MOCLDY    39  21  48 SW8       30.12F
THUNDER BAY    CLEAR     28  23  80 W2        30.18F
SIOUX LOOKOUT  PTCLDY    45  36  70 S6        30.04F
TORONTO        CLEAR     37  25  60 SW3       30.38R
BIG TROUT LK   CLEAR     41  30  65 SW10G20   29.76F
PICKLE LAKE    NOT AVBL
DRYDEN         CLEAR     46  37  71 SW10      30.05F
KENORA         PTCLDY    43  37  81 SW9       30.05F
$$
                *** MANITOBA***

CITY           SKY/WX    TMP DP  RH WIND       PRES   REMARKS
BRANDON        MOCLDY    37  30  75 W8        30.11R
DAUPHIN        CLEAR     41  34  75 W18G24    30.06R
ISLAND LAKE    MOCLDY    43  34  70 W18G29    29.76R
PILOT MOUND      N/A     41  28  60 W5          N/A
THE PAS        FLURRIES  32  30  93 NW17G23   29.94R WCI  21
THOMPSON       FLURRIES  28  23  80 NW16      29.79R WCI  17
WINNIPEG       MOCLDY    45  32  61 W10       30.07R
LYNN LAKE      LGT SNOW  19  16  86 N10G17    29.92R WCI   8
CHURCHILL      LGT SNOW  23  21  93 NE31G40   29.74R VSB 1   WCI   5
GILLAM         LGT RAIN  34  32  93 NW17G28   29.61R WCI  23
$$
                ***SASKATCHEWAN***

CITY           SKY/WX    TMP DP  RH WIND       PRES   REMARKS
ESTEVAN        PTCLDY    34  27  75 W6        30.18R
KINDERSLEY     PTCLDY    34  30  86 NW8       30.26R
LLOYDMINSTER   CLEAR     30  28  93 W13       30.23R WCI  20
PRINCE ALBERT  PTCLDY    39  34  81 NW12      30.13R
REGINA         CLEAR     30  28  93 W9        30.19R WCI  22
YORKTON        CLEAR     37  32  81 W13       30.11R
N. BATTLEFORD  CLEAR     36  30  80 NW9       30.24R
LA RONGE       LGT RAIN  34  34 100 W8        30.04R
SASKATOON      PTCLDY    37  32  81 W12       30.20R
SWIFT CURRENT  CLEAR     32  28  86 W7        30.23R
$$
NOTE: THESE ARE AUTOMATED STATIONS WITH LIMITED QUALITY CONTROL
      "FAIR" INDICATES FEW OR NO CLOUDS BELOW 12,000 FEET WITH NO
      SIGNIFICANT WEATHER AND/OR OBSTRUCTIONS TO VISIBILITY.
      SKY/WX - SKY CONDITION AND SIGNIFICANT WEATHER.
      TMP - AIR TEMPERATURE.    DP   - DEWPOINT TEMPERATURE.
      RH  - RELATIVE HUMIDITY.  PRES - PRESSURE.
      HX  - HEAT INDEX.         WCI  - WIND CHILL INDEX.
$




USA.gov is the U.S. government's official web portal to all federal, state and local government web resources and services.